Location: Breitenberg
(48.6657°N, 8.6374°E)
Time: 23:02:35
(UTC+00:00)

Daily predictions for brighter satellites

Satellite Brightness Start Highest point End
(mag) Time Altitude Azimuth Time Altitude Azimuth Time Altitude Azimuth
Cosmos 1726 Rocket 3.6 15:59:02 10° S 16:03:29 89° WNW 16:07:55 10° N
CZ-2D R/B 3.2 16:00:52 10° SSE 16:04:27 55° ENE 16:08:04 10° N
Cosmos 1812 4.2 16:07:09 10° SE 16:09:39 17° E 16:12:08 10° NE
Meteor 1-27 4.5 16:04:23 10° SSW 16:10:01 74° WNW 16:15:37 10° N
USA 276 2.7 16:12:44 10° SW 16:14:55 31° SSE 16:17:09 10° E
CZ-2C R/B 2.6 16:12:31 10° SSE 16:16:00 57° ENE 16:19:34 10° N
Cosmos 2263 Rocket 2.3 16:11:17 10° S 16:16:43 59° ESE 16:22:13 10° NE
Cosmos 1437 Rocket 2.8 16:13:17 10° NNW 16:17:00 78° W 16:20:46 10° S
Cosmos 1844 Rocket 4.4 16:14:58 10° SE 16:17:35 14° E 16:20:13 10° ENE
Nadezhda 4 Rocket 4.4 16:15:05 10° SSE 16:20:42 39° E 16:26:18 10° NNE
CORIOLIS 4.2 16:15:42 10° SE 16:20:54 55° ENE 16:26:10 10° N
ERS-2 2.2 16:19:35 10° S 16:22:28 59° WSW 16:25:22 10° NNW
USA 307 2.7 16:20:19 10° WNW 16:24:11 82° SSW 16:28:00 10° ESE
Cosmos 2227 Rocket 3.0 16:19:28 10° SW 16:24:56 49° NW 16:30:26 10° NNE
Cosmos 44 4.1 16:21:47 10° NW 16:27:06 61° WSW 16:32:11 10° SSE
Cosmos 1140 Rocket 3.6 16:22:41 10° NNW 16:27:45 50° ENE 16:32:44 10° SE
SAR-Lupe-2 3.7 16:26:08 10° S 16:29:42 79° WSW 16:33:19 10° NNW
YAOGAN 1 4.4 16:29:59 12° NE 16:29:59 12° NE 16:31:18 10° NE
ARGOS 4.5 16:28:24 10° S 16:33:35 45° W 16:38:48 10° NNW
Cosmos 1666 2.4 16:30:42 10° N 16:34:15 76° E 16:37:46 10° SSE
NOSS 8 (A) 4.4 16:33:08 10° SW 16:36:52 75° NW 16:39:22 14° NE
Cosmos 1603 3.9 16:32:11 10° NNW 16:37:44 51° NE 16:43:13 10° SE
DMSP B5D2-2 4.0 16:33:35 10° NNE 16:38:49 73° ESE 16:44:01 10° S
Cosmos 1076 Rocket 4.0 16:37:10 10° NNW 16:41:31 65° W 16:45:48 10° S
Meteor 1-31 Rocket 2.6 16:39:15 10° SSE 16:42:55 68° ENE 16:46:38 10° N
USA 306 3.7 16:45:18 10° W 16:47:07 22° SW 16:48:52 10° SSE
SL-16 R/B 4.1 16:45:26 10° NW 16:50:29 34° WSW 16:55:31 10° SSW
ATLAS CENTAUR R/B 2.8 16:46:53 10° NW 16:50:59 81° SW 16:59:02 10° SE
Cosmos 1602 3.7 16:49:23 10° NNW 16:53:08 80° W 16:56:51 10° S
SL-8 R/B 4.5 16:50:46 10° W 16:55:23 50° SSW 17:00:01 10° SE
RESURS DK-1 3.6 16:52:30 10° N 16:55:44 22° NE 16:56:12 21° NE
USA 305 3.0 16:52:08 10° WNW 16:55:55 62° SW 16:59:41 10° SE
CZ-4B R/B 3.4 16:53:52 10° SSE 16:58:50 60° ENE 17:03:41 10° N
Cosmos 1782 3.4 16:57:50 10° SSE 17:01:22 33° E 17:03:03 23° NE
Cosmos 1812 Rocket 3.6 16:57:29 10° S 17:01:43 57° E 17:06:01 10° NNE
Cosmos 1943 3.3 16:56:05 10° NNW 17:01:45 83° WSW 17:07:23 10° SSE
Helios 1A 3.2 16:58:42 13° NNE 17:02:12 46° E 17:06:11 10° S
ATLAS 2AS CENTAUR R/B 2.9 16:57:14 10° NW 17:03:58 48° NE 17:09:08 16° ESE
SMAP 3.6 17:00:59 10° S 17:05:35 61° WSW 17:10:13 10° NNW
NOAA 6 4.1 17:01:41 10° SE 17:06:41 55° ENE 17:11:41 10° N
CZ-4B R/B 4.3 17:05:28 10° S 17:08:59 57° W 17:12:36 10° NNW
Cosmos 407 Rocket 3.4 17:07:56 10° NNW 17:13:08 85° ENE 17:18:16 10° SSE
Radarsat Rocket 3.9 17:07:28 10° SSE 17:13:12 65° ENE 17:19:18 10° NNW
Cosmos 2297 Rocket 4.4 17:09:56 10° W 17:13:43 18° NW 17:17:32 10° N
SOZ 4.4 17:13:03 10° W 17:15:17 59° N 17:16:20 36° NE
ISS -0.9 17:17:09 10° W 17:19:27 17° SW 17:21:45 10° S
Cosmos 2251 Rocket 3.6 17:15:32 10° NNW 17:20:54 80° WSW 17:26:16 10° SSE
Cosmos 220 Rocket 3.9 17:20:27 10° NNW 17:24:44 57° ENE 17:27:53 17° SE
Cosmos 2056 Rocket 4.0 17:22:35 10° S 17:27:32 39° ESE 17:28:45 34° ENE
Cosmos 1954 Rocket 4.1 17:22:34 10° NNW 17:27:44 51° ENE 17:31:27 18° SE
COSMOS 2455 4.2 17:23:47 10° SSE 17:27:03 20° ESE 17:27:03 20° ESE
Timation 2 Rocket 4.1 17:22:46 10° S 17:28:23 45° ESE 17:30:41 31° ENE
Cosmos 1844 4.1 17:23:15 10° S 17:28:38 42° ESE 17:30:24 33° ENE
CZ-4 R/B 4.2 17:26:17 10° SSE 17:30:21 79° ENE 17:34:28 10° N
Lacrosse 5 2.2 17:25:37 10° SSW 17:30:26 46° SE 17:31:43 37° E
Cosmos-2242 3.6 17:27:04 10° SSW 17:31:20 57° WNW 17:35:37 10° N
COSMO-SKYMED 1 2.5 17:29:30 28° NNE 17:31:41 63° ESE 17:35:59 10° S
Lacrosse 4 Rocket 2.8 17:29:21 10° NW 17:33:26 41° WSW 17:37:24 10° S
Cosmos 1833 Rocket 4.0 17:30:11 10° N 17:33:48 22° NNE 17:33:48 22° NNE
Cosmos 1553 Rocket 4.1 17:33:04 10° N 17:39:16 53° ENE 17:45:19 10° SSE
APEX 3.3 17:37:12 10° SW 17:39:58 46° WNW 17:39:58 46° WNW
USA 234 3.2 17:37:35 32° ENE 17:40:53 74° SE 17:47:26 10° SW
Meteor 2-2 Rocket 4.4 17:35:16 10° SSW 17:41:02 80° WNW 17:46:58 10° N
Cosmos 2221 2.8 17:37:43 10° S 17:41:02 44° SE 17:41:02 44° SE
Cosmos 2344 3.4 17:35:12 10° SW 17:42:45 83° SE 17:47:05 28° NE
Cosmos 1812 4.1 17:41:04 10° SW 17:44:30 36° WNW 17:47:41 12° N
Cosmos 1190 Rocket 4.0 17:39:53 10° NNW 17:45:14 89° WSW 17:50:32 10° SSE
Cosmos 1818 3.5 17:41:09 10° SW 17:46:36 88° NW 17:48:45 39° NE
Cosmos 2026 Rocket 3.9 17:41:48 10° S 17:48:04 89° ESE 17:54:29 10° N
USA 276 4.1 17:46:58 10° W 17:48:03 22° W 17:48:03 22° W
Cosmos 1371 Rocket 4.0 17:46:34 10° S 17:51:43 61° ESE 17:52:32 54° ENE
NOAA 15 4.5 17:49:13 10° SSE 17:54:27 66° ENE 17:59:43 10° N
CZ-4B R/B 4.5 18:01:43 26° NNE 18:01:43 26° NNE 18:04:24 10° N
Cosmos 1844 Rocket 2.5 17:54:58 10° SSW 18:00:32 82° ESE 18:02:02 50° NE
Cosmos 2263 Rocket 3.8 17:56:14 10° WSW 18:01:01 29° NW 18:05:03 13° N
Meteor 1-26 Rocket 4.1 17:55:49 10° S 18:01:22 79° E 18:04:18 30° NNE
Cosmos 1766 Rocket 3.5 17:59:35 10° NNW 18:03:58 80° W 18:08:17 10° S
YAOGAN 1 3.8 18:07:03 32° N 18:07:03 32° N 18:09:23 10° NNW
Cosmos 1092 Rocket 4.2 17:59:33 10° SSW 18:05:39 68° WNW 18:11:48 10° N
Cosmos 1933 4.1 18:03:04 10° SSW 18:06:58 51° WNW 18:07:55 41° NNW
Cosmos 1420 Rocket 3.9 18:02:24 10° SSW 18:07:40 86° ESE 18:08:27 66° NNE
ADEOS 3.9 18:05:08 10° S 18:10:18 65° WSW 18:15:31 10° NNW
Cosmos 2082 Rocket 4.3 18:08:12 10° N 18:09:22 13° N 18:09:22 13° N
Cosmos 1624 Rocket 3.8 18:10:15 10° SSW 18:15:29 90° ESE 18:15:39 84° NNE
Cosmos 1417 Rocket 4.3 18:17:25 10° N 18:23:45 74° E 18:24:06 72° ESE
SL-08 R/B 3.7 18:25:45 55° NW 18:26:08 57° WNW 18:30:40 10° SSW
RESURS DK-1 4.1 18:29:49 10° NW 18:31:56 28° NW 18:31:56 28° NW
BREEZE-M DEB 4.5 18:28:27 10° WSW 18:48:46 75° SSE 18:49:10 73° SE
ATLAS 2AS CENTAUR R/B 3.3 18:48:23 10° NW 18:54:59 51° WSW 18:56:38 42° SSW
COSMOS 2455 4.2 19:07:18 10° SW 19:10:14 31° SW 19:10:14 31° SW
Lacrosse 5 3.7 19:08:27 10° WSW 19:10:56 28° W 19:10:56 28° W
USA 234 3.9 19:24:56 49° NW 19:24:56 49° NW 19:30:07 10° W
